STARLINK-3589, 51997

Orbit data source: Space-Track

STARLINK-3589, 51997 is a payload satellite owned by SpaceX/Seattle (US) in LEO that was launched on Wed, 09 Mar 2022 UTC via an FALCON 9 launch vehicle from the Air Force Eastern Test Range (AFETR). Payload-class satellites include a variety of spacecraft equipped with specific instruments for various scientific and technological missions. These include communications satellites like Starlink; space stations such as the ISS; scientific satellites like the Hubble; Earth observation satellites from companies like Planet Labs, Umbra, and HawkEye 360; GPS; miniature CubeSats for education and research; and military/defense satellites.

Loading next visibility...
Identifier
51997, 2022-025AT
Orbit
LEO
Country
Flag of USUS
Related business
Manufacturer
SpaceX/Seattle
Mission
Operational Commercial Communications
Bus & Motor
STARLINK, Unknown motor
Mass
297 kg wet, ~275 kg dry
Launch date (UTC)
2022-03-09 (4 years ago)
Launch vehicle
FALCON 9
Launch site
Air Force Eastern Test Range (AFETR)
Object type
Payload
Rocket body
Debris
Shape & HBR
Box + 1 Pan, 10.1 m
Radar Cross Section
13.562 m², Large (>1 m²)

Expand to show TLE details & history
Last TLE update: 1 day ago

TLE from 1 day ago
0 STARLINK-3589
1 51997U 22025AT  25346.56668384  .00000331  00000-0  38913-4 0  9993
2 51997  53.2189  50.2319 0001485  89.2394 270.8768 15.08831205207756
Epoch: 2025-12-12T13:36Z
TLE epoch observation values (Epoch: 2025-12-12T13:36:01.483Z)
Latitude
-0.00006°
Longitude
124.71921°
Altitude
540.652 km
Speed
7.593 km/s
True Right ascension
03h 20m 55s
True Declination
0° 00' 00"
Sunlit
Object was in full shadow at epoch
Visualization orbit readout
Latitude
Unknown
Longitude
Unknown
Altitude
Unknown
Speed
Unknown
Apparent Right ascension
Unknown
Apparent Declination
Unknown
Sunlit
N/A
Visualization observer readout
Local Sidereal Time
13:07:38
Azimuth
Unknown
Elevation
Unknown
Doppler factor
Unknown
Orbital elements
Apogee altitude
541.042 km
Perigee altitude
538.988 km
Semi-major axis
6,918.152 km
Eccentricity
0.00015
Inclination
53.2189°
RAAN
50.2319°
Arg. of periapsis
89.2394°
True anomaly
270.85979°
Mean anomaly
270.8768°
Eccentric anomaly
270.86829°
Mean motion
3.77188 °/min
Orbital period
95.44 mins
BSTAR
0.000038913
Loading maneuver chart data...
Computing Atmospheric mass density...
Loading historical data...
Loading historical data...
Loading historical data...
Loading historical data...
Loading historical data...
Loading historical data...
Loading historical data...

Documentation

Showing up to 5 results
|